Location: Unspecified
(0.0000°N, 0.0000°E)
Time: 04:52:38
(UTC+00:00)

Vanguard 1 - Pass Details

Date: 13 December 2023
Orbit: 653 x 3826 km, 34.3° (Epoch: 22 February)

Event Time Altitude Azimuth Distance (km) Brightness Sun altitude
Rises 19:38:04 0° 322° (NW) 6,428 14.4 -23.7°
Reaches altitude 10° 19:43:23 10° 335° (NNW) 5,878 14.0 -24.9°
Maximum altitude 19:58:46 26° 26° (NNE) 5,476 13.4 -28.4°
Enters shadow 19:59:44 26° 30° (NNE) 5,509 13.4 -28.6°
Drops below altitude 10° 20:16:25 10° 75° (ENE) 6,840 - -32.3°
Sets 20:23:10 0° 87° (E) 7,640 - -33.8°
